Location: Hackbridge
(51.3833°N, 0.1500°W)
Time: 09:38:55
(UTC+00:00)

Cosmos 1703 - Pass Details

Date: 13 October 2019
Orbit: 523 x 542 km, 82.5° (Epoch: 18 November)

Event Time Altitude Azimuth Distance (km) Brightness Sun altitude
Rises 17:52:04 0° 359° (N) 2,710 6.8 -6.9°
Reaches altitude 10° 17:54:36 10° 14° (NNE) 1,810 5.8 -7.3°
Maximum altitude 17:57:48 23° 68° (ENE) 1,181 4.5 -7.8°
Drops below altitude 10° 18:00:58 10° 121° (ESE) 1,789 5.4 -8.3°
Enters shadow 18:02:53 - 134° (SE) 2,460 6.2 -8.6°
